{"data":{"norad_id":61895,"intl_designator":"2024-205B","name":"2024-205B","alt_names":[],"object_type":"PAYLOAD","status":"ACTIVE","operator":null,"country":"PRC","launch_date":"2024-11-11","launch_site_code":"JSC","launch_vehicle":null,"mission":null,"orbit_class":"UNKNOWN","rcs_meters":null,"size_class":null,"mass_kg":null,"dimensions":null,"purposes":[],"wikipedia_slug":null,"has_3d_model":false,"image_url":null,"decayed_at":null,"tle_current":{"epoch":"2026-05-25T03:55:57.918720Z","epoch_age_seconds":57550,"freshness":"FRESH","line1":"1 61895U 24205B   26145.16386480  .00012494  00000+0  43365-3 0  9999","line2":"2 61895  97.4137 222.8623 0011682 115.7559 244.4889 15.29857601 85161","mean_motion":15.29857601,"eccentricity":0.0011682,"inclination_deg":97.4137,"raan_deg":222.8623,"arg_perigee_deg":115.7559,"mean_anomaly_deg":244.4889,"bstar":0.00043365,"rev_number":8516,"period_min":94.12640752046,"perigee_km":468.23032137706,"apogee_km":484.24488219668,"semimajor_km":6854.3746017869,"source":"CELESTRAK","updated_at":"2026-05-25T13:38:02.601916Z"}}}